Waarnemingen

Advertentie
Mijn weer
Besancon, Frankrijk (7288): temperatuur & dauwpunt: 12.10.2017 05:00:00 - 18.10.2017 05:00:00 (CEST)Besancon, Frankrijk (7288): temperatuur 5cm: 12.10.2017 05:00:00 - 18.10.2017 05:00:00 (CEST)Besancon, Frankrijk (7288): temperatuur -20cm & temperatuur -100cm: 12.10.2017 05:00:00 - 18.10.2017 05:00:00 (CEST)Besancon, Frankrijk (7288): windsnelheid & windstoten: 12.10.2017 05:00:00 - 18.10.2017 05:00:00 (CEST)Besancon, Frankrijk (7288): windrichting: 12.10.2017 05:00:00 - 18.10.2017 05:00:00 (CEST)Besancon, Frankrijk (7288): luchtdruk: 12.10.2017 05:00:00 - 18.10.2017 05:00:00 (CEST)Besancon, Frankrijk (7288): zicht: 12.10.2017 05:00:00 - 18.10.2017 05:00:00 (CEST)Besancon, Frankrijk (7288): Zonneschijnduur: 12.10.2017 05:00:00 - 18.10.2017 05:00:00 (CEST)Besancon, Frankrijk (7288): neerslag: 12.10.2017 05:00:00 - 18.10.2017 05:00:00 (CEST)
Datum & Tijd tt [°C] td [°C] tt 5cm [°C] tt -20cm [°C] tt -100cm [°C] ff [km/u] ff [kn] fx [km/u] fx [kn] dd ppp [hPa] vv [km] sd [min] rr [mm]
18.10.2017 05:00:00 8,6 6,9 4,2 14,6 15,4 0 0 3 2 N 1018,8 - 0 0,0
18.10.2017 04:00:00 7,8 6,4 4,1 14,6 15,4 2 1 5 3 NNO 1019,1 - 0 0,0
18.10.2017 03:00:00 8,0 6,8 4,1 14,7 15,4 0 0 3 2 N 1019,4 - 0 0,0
18.10.2017 02:00:00 8,8 6,9 5,0 14,8 15,4 0 0 4 2 N 1019,4 - 0 0,0
18.10.2017 01:00:00 10,1 8,0 5,3 14,8 15,4 0 0 6 3 N 1019,2 - 0 0,0
18.10.2017 00:00:00 10,7 8,5 5,5 14,9 15,4 0 0 6 4 N 1019,4 - 0 0,0
17.10.2017 23:00:00 10,7 8,3 6,2 14,9 15,4 4 2 6 3 N 1019,4 - 0 0,0
17.10.2017 22:00:00 11,8 8,8 7,2 14,9 15,4 4 2 8 5 NNO 1019,1 - 0 0,0
17.10.2017 21:00:00 13,2 9,3 7,9 14,8 15,4 0 0 4 2 N 1019,1 - 0 0,0
17.10.2017 20:00:00 15,2 9,3 9,2 14,8 15,4 0 0 4 2 N 1019,0 - 0 0,0
17.10.2017 19:00:00 17,8 9,7 11,4 14,7 15,4 0 0 7 4 N 1018,5 - 25 0,0
17.10.2017 18:00:00 22,0 8,8 21,3 14,5 15,4 0 0 6 3 N 1018,3 - 54 0,0
17.10.2017 17:00:00 23,1 7,6 27,2 14,4 15,4 2 1 9 5 NNW 1018,7 - 60 0,0
17.10.2017 16:00:00 23,2 8,1 25,5 14,3 15,4 3 2 10 5 NW 1019,0 30 60 0,0
17.10.2017 15:00:00 23,0 6,7 27,8 14,2 15,4 6 3 16 8 WZW 1020,0 - 60 0,0
17.10.2017 14:00:00 22,2 6,8 29,1 14,1 15,4 7 4 15 8 ZZW 1021,1 25 60 0,0
17.10.2017 13:00:00 20,9 6,0 30,7 14,1 15,4 0 0 5 3 N 1022,1 25 60 0,0
17.10.2017 12:00:00 18,2 5,7 26,3 14,1 15,4 0 0 4 2 N 1022,9 20 60 0,0
17.10.2017 11:00:00 15,3 6,8 14,6 14,2 15,4 0 0 4 2 N 1023,9 20 60 0,0
17.10.2017 10:00:00 10,2 6,5 5,8 14,3 15,4 0 0 3 2 N 1025,0 - 60 0,0
17.10.2017 09:00:00 7,4 6,2 3,4 14,4 15,4 0 0 0 0 N 1025,5 - 18 0,0
17.10.2017 08:00:00 7,4 5,7 3,4 14,5 15,5 0 0 6 3 N 1025,3 20 0 0,0
17.10.2017 07:00:00 7,2 6,0 3,5 14,6 15,4 0 0 4 2 N 1025,2 20 0 0,0
17.10.2017 06:00:00 7,7 6,6 3,7 14,7 15,4 0 0 4 2 N 1025,3 20 0 0,0
17.10.2017 05:00:00 8,5 7,1 4,6 14,8 15,4 0 0 7 4 N 1025,4 - 0 0,0
17.10.2017 04:00:00 8,5 7,3 4,5 14,9 15,5 0 0 5 3 N 1025,8 - 0 0,0
17.10.2017 03:00:00 9,4 8,2 4,9 14,9 15,4 0 0 5 3 N 1025,8 - 0 0,0
17.10.2017 02:00:00 10,1 8,4 5,6 15,0 15,5 0 0 6 4 N 1025,7 - 0 0,0
17.10.2017 01:00:00 10,8 9,1 6,2 15,1 15,5 0 0 5 3 N 1025,5 - 0 0,0
17.10.2017 00:00:00 11,5 8,9 6,5 15,1 15,5 0 0 5 3 N 1025,4 - 0 0,0
16.10.2017 23:00:00 12,0 10,1 6,6 15,1 15,4 3 2 6 4 NNO 1025,4 - 0 0,0
16.10.2017 22:00:00 12,7 10,8 7,8 15,1 15,5 4 2 7 4 NNO 1024,8 - 0 0,0
16.10.2017 21:00:00 13,3 10,5 7,8 15,1 15,5 0 0 4 2 N 1024,9 - 0 0,0
16.10.2017 20:00:00 15,4 11,0 9,4 15,0 15,5 2 1 6 3 NNO 1024,6 - 0 0,0
16.10.2017 19:00:00 19,4 10,1 11,8 14,8 15,5 0 0 4 2 N 1023,7 - 32 0,0
16.10.2017 18:00:00 24,7 9,8 24,9 14,7 15,4 2 1 8 4 W 1022,7 - 54 0,0
16.10.2017 17:00:00 26,1 8,6 28,3 14,5 15,4 4 2 10 6 WZW 1022,6 30 60 0,0
16.10.2017 16:00:00 26,0 9,8 28,6 14,4 15,4 5 3 14 8 ZW 1022,9 30 60 0,0
16.10.2017 15:00:00 25,6 9,8 31,4 14,2 15,5 3 2 14 8 WZW 1023,3 30 60 0,0
16.10.2017 14:00:00 24,4 10,3 33,1 14,2 15,5 5 3 12 6 ZW 1024,0 25 60 0,0
16.10.2017 13:00:00 23,6 7,6 34,2 14,1 15,5 3 2 9 5 ZZW 1024,6 25 60 0,0
16.10.2017 12:00:00 20,1 10,2 29,2 14,2 15,5 0 0 2 1 N 1025,3 25 60 0,0
16.10.2017 11:00:00 16,6 9,8 16,4 14,2 15,4 0 0 3 2 N 1025,8 25 60 0,0
16.10.2017 10:00:00 11,3 8,5 6,6 14,4 15,5 0 0 3 2 N 1026,6 25 60 0,0
16.10.2017 09:00:00 8,5 7,6 4,1 14,4 15,5 2 1 4 2 N 1026,7 20 20 0,0
16.10.2017 08:00:00 7,9 7,1 4,0 14,5 15,5 0 0 3 2 N 1026,5 15 0 0,0
16.10.2017 07:00:00 8,5 7,6 4,2 14,6 15,5 0 0 3 2 N 1026,6 10 0 0,0
16.10.2017 06:00:00 9,1 7,9 4,7 14,7 15,5 0 0 4 2 N 1026,6 10 0 0,0
16.10.2017 05:00:00 9,5 8,6 5,5 14,7 15,5 0 0 5 3 N 1026,4 - 0 0,0
16.10.2017 04:00:00 9,5 8,6 5,2 14,8 15,5 0 0 6 4 N 1026,8 - 0 0,0
16.10.2017 03:00:00 9,6 8,4 5,5 14,9 15,5 0 0 4 2 N 1027,0 - 0 0,0
16.10.2017 02:00:00 10,8 9,6 6,3 15,0 15,5 0 0 7 4 N 1026,9 - 0 0,0
16.10.2017 01:00:00 11,2 9,8 7,1 15,0 15,5 0 0 6 4 N 1026,7 - 0 0,0
16.10.2017 00:00:00 12,2 10,9 7,6 15,0 15,5 2 1 7 4 NNO 1026,7 - 0 0,0
15.10.2017 23:00:00 12,4 11,5 7,9 15,0 15,5 4 2 7 4 NNO 1026,4 - 0 0,0
15.10.2017 22:00:00 12,6 11,3 8,1 15,0 15,5 2 1 7 4 NNO 1026,3 - 0 0,0
15.10.2017 21:00:00 14,1 11,8 9,2 15,0 15,5 3 2 7 4 NNO 1026,0 - 0 0,0
15.10.2017 20:00:00 15,7 12,1 10,5 14,9 15,5 2 1 4 2 NNO 1025,7 - 0 0,0
15.10.2017 19:00:00 18,9 12,2 13,2 14,8 15,5 0 0 9 5 N 1024,8 - 30 0,0
15.10.2017 18:00:00 22,4 11,8 22,8 14,6 15,5 4 2 16 8 ZZW 1024,0 - 54 0,0
15.10.2017 17:00:00 23,4 11,4 24,7 14,5 15,5 10 5 22 12 ZW 1023,8 20 60 0,0
15.10.2017 16:00:00 23,8 11,8 25,3 14,3 15,5 4 2 16 9 ZZW 1024,2 - 60 0,0
15.10.2017 15:00:00 23,2 10,6 29,2 14,2 15,5 4 2 14 8 WZW 1024,6 20 60 0,0
15.10.2017 14:00:00 21,6 9,8 29,4 14,1 15,5 6 3 14 7 ZZW 1025,3 20 60 0,0
15.10.2017 13:00:00 20,4 9,9 29,5 14,1 15,5 5 3 16 8 ZW 1026,0 - 60 0,0
15.10.2017 12:00:00 18,3 9,9 27,9 14,1 15,5 0 0 6 3 N 1026,7 20 60 0,0
15.10.2017 11:00:00 14,3 10,9 16,4 14,2 15,5 0 0 4 2 N 1027,3 20 60 0,0
15.10.2017 10:00:00 10,1 9,9 5,7 14,3 15,5 0 0 3 2 N 1027,9 20 60 0,0
15.10.2017 09:00:00 8,0 7,7 4,4 14,4 15,5 0 0 0 0 N 1028,0 - 21 0,0
15.10.2017 08:00:00 8,0 7,9 3,6 14,5 15,5 0 0 2 1 N 1027,5 20 0 0,0
15.10.2017 07:00:00 8,4 8,1 4,4 14,6 15,5 0 0 4 2 N 1027,1 20 0 0,0
15.10.2017 06:00:00 8,8 8,5 4,8 14,7 15,5 0 0 4 2 N 1027,3 20 0 0,0
15.10.2017 05:00:00 9,2 8,7 5,1 14,8 15,5 0 0 6 4 N 1027,1 - 0 0,0
15.10.2017 04:00:00 9,6 9,5 5,1 14,8 15,5 2 1 5 3 NNO 1027,2 - 0 0,0
15.10.2017 03:00:00 9,4 8,9 5,6 14,9 15,5 0 0 5 3 N 1027,7 - 0 0,0
15.10.2017 02:00:00 10,5 10,0 6,4 15,0 15,5 3 1 7 4 NNO 1027,6 - 0 0,0
15.10.2017 01:00:00 10,8 10,3 6,7 15,0 15,5 0 0 3 2 N 1027,6 - 0 0,0
15.10.2017 00:00:00 11,5 11,0 7,1 15,1 15,5 2 1 5 3 NNO 1027,3 - 0 0,0
14.10.2017 23:00:00 11,7 11,1 7,0 15,1 15,6 2 1 4 2 NNO 1027,3 - 0 0,0
14.10.2017 22:00:00 12,0 10,9 7,4 15,0 15,5 0 0 6 4 N 1027,3 - 0 0,0
14.10.2017 21:00:00 13,2 11,6 8,5 15,0 15,5 0 0 4 2 N 1027,3 - 0 0,0
14.10.2017 20:00:00 14,7 12,4 9,9 14,9 15,5 0 0 5 3 N 1026,8 - 0 0,0
14.10.2017 19:00:00 17,3 12,0 11,9 14,8 15,5 0 0 3 2 N 1026,1 - 35 0,0
14.10.2017 18:00:00 20,7 11,3 23,5 14,6 15,5 0 0 6 4 N 1025,7 - 55 0,0
14.10.2017 17:00:00 22,2 12,4 26,3 14,4 15,5 0 0 9 5 N 1025,6 - 60 0,0
14.10.2017 16:00:00 21,5 12,3 25,3 14,3 15,5 2 1 8 5 WNW 1025,8 20 60 0,0
14.10.2017 15:00:00 20,8 12,5 27,3 14,2 15,5 5 3 15 8 NW 1026,3 - 60 0,0
14.10.2017 14:00:00 20,3 12,0 31,3 14,1 15,5 4 2 9 5 W 1026,7 20 60 0,0
14.10.2017 13:00:00 19,4 11,4 29,3 14,1 15,5 2 1 6 3 W 1027,4 - 60 0,0
14.10.2017 12:00:00 17,4 10,5 27,3 14,1 15,5 0 0 4 2 N 1028,0 20 60 0,0
14.10.2017 11:00:00 13,8 11,3 16,0 14,2 15,5 2 1 5 3 N 1028,4 - 60 0,0
14.10.2017 10:00:00 10,5 10,5 5,8 14,3 15,5 2 1 3 2 N 1028,8 20 60 0,0
14.10.2017 09:00:00 7,8 7,7 4,3 14,4 15,6 0 0 0 0 N 1028,9 - 20 0,0
14.10.2017 08:00:00 8,1 8,1 3,5 14,5 15,5 0 0 2 1 N 1028,3 - 0 0,0
14.10.2017 07:00:00 8,4 8,4 3,9 14,6 15,5 0 0 3 2 N 1028,1 10 0 0,0
14.10.2017 06:00:00 8,7 8,4 4,6 14,6 15,5 0 0 4 2 N 1028,0 10 0 0,0
14.10.2017 05:00:00 9,2 9,1 4,8 14,7 15,5 0 0 4 2 N 1027,8 - 0 0,0
14.10.2017 04:00:00 9,5 9,2 5,0 14,8 15,6 0 0 5 3 N 1027,8 - 0 0,0
14.10.2017 03:00:00 9,3 9,0 5,0 14,9 15,6 2 1 4 2 N 1028,0 - 0 0,0
14.10.2017 02:00:00 10,4 10,1 6,1 15,0 15,6 2 1 6 3 NNO 1027,7 - 0 0,0
14.10.2017 01:00:00 10,3 9,8 5,7 15,0 15,6 2 1 5 3 N 1027,8 - 0 0,0
14.10.2017 00:00:00 10,6 9,8 6,5 15,0 15,5 0 0 3 2 N 1027,7 - 0 0,0
13.10.2017 23:00:00 11,1 10,2 6,6 15,1 15,6 0 0 5 3 N 1027,8 - 0 0,0
13.10.2017 22:00:00 12,6 11,3 7,6 15,1 15,6 0 0 5 3 N 1027,7 - 0 0,0
13.10.2017 21:00:00 12,8 11,0 8,0 15,0 15,6 2 1 5 3 NNO 1027,3 - 0 0,0
13.10.2017 20:00:00 14,7 11,1 9,5 14,9 15,5 0 0 4 2 N 1027,0 - 0 0,0
13.10.2017 19:00:00 17,6 12,1 11,9 14,8 15,6 2 1 4 2 N 1026,3 - 35 0,0
13.10.2017 18:00:00 20,8 10,9 24,1 14,6 15,6 0 0 6 3 N 1025,6 - 56 0,0
13.10.2017 17:00:00 21,0 9,6 25,7 14,5 15,6 4 2 10 5 N 1025,8 30 60 0,0
13.10.2017 16:00:00 22,1 9,9 25,1 14,4 15,6 3 1 11 6 WZW 1025,6 30 60 0,0
13.10.2017 15:00:00 20,5 10,6 27,0 14,2 15,6 6 3 14 7 NNW 1026,2 30 60 0,0
13.10.2017 14:00:00 19,8 10,2 29,9 14,1 15,6 5 3 10 6 NNW 1026,5 25 60 0,0
13.10.2017 13:00:00 18,9 11,9 29,6 14,1 15,5 4 2 9 5 W 1026,9 25 60 0,0
13.10.2017 12:00:00 17,3 11,3 26,8 14,1 15,5 0 0 7 4 N 1027,5 25 60 0,0
13.10.2017 11:00:00 14,4 11,2 16,8 14,2 15,6 0 0 4 2 N 1027,9 25 60 0,0
13.10.2017 10:00:00 10,7 10,4 7,4 14,3 15,6 0 0 4 2 N 1028,4 25 60 0,0
13.10.2017 09:00:00 8,7 8,7 5,0 14,4 15,6 0 0 3 2 N 1028,5 20 21 0,0
13.10.2017 08:00:00 8,0 7,7 4,7 14,5 15,6 0 0 4 2 N 1028,5 - 0 0,0
13.10.2017 07:00:00 7,9 7,5 4,8 14,6 15,6 2 1 4 2 N 1028,5 8 0 0,0
13.10.2017 06:00:00 8,6 8,3 4,9 14,6 15,6 0 0 3 2 N 1028,4 8 0 0,0
13.10.2017 05:00:00 8,8 8,5 5,2 14,7 15,6 0 0 4 2 N 1028,4 - 0 0,0
13.10.2017 04:00:00 9,1 8,8 5,6 14,8 15,6 0 0 6 4 N 1028,1 - 0 0,0
13.10.2017 03:00:00 9,6 9,3 6,1 14,9 15,6 4 2 5 3 NNO 1028,2 - 0 0,0
13.10.2017 02:00:00 10,3 10,1 6,1 15,0 15,6 0 0 4 2 N 1028,1 - 0 0,0
13.10.2017 01:00:00 10,0 9,5 6,3 15,0 15,6 0 0 5 3 N 1028,1 - 0 0,0
13.10.2017 00:00:00 10,7 10,5 6,5 15,1 15,6 3 2 5 3 NNO 1028,2 - 0 0,0
12.10.2017 23:00:00 10,8 10,2 6,7 15,1 15,6 2 1 6 4 NNO 1028,1 - 0 0,0
12.10.2017 22:00:00 11,9 11,6 7,5 15,1 15,6 0 0 4 2 N 1027,6 - 0 0,0
12.10.2017 21:00:00 12,4 11,1 8,0 15,1 15,6 0 0 3 2 N 1027,9 - 0 0,0
12.10.2017 20:00:00 13,8 11,8 9,5 15,0 15,6 2 1 3 2 N 1027,7 - 0 0,0
12.10.2017 19:00:00 16,2 12,2 11,8 14,9 15,6 0 0 4 2 N 1027,0 - 35 0,0
12.10.2017 18:00:00 19,2 11,5 21,7 14,8 15,6 3 2 14 8 WZW 1026,4 - 58 0,0
12.10.2017 17:00:00 19,4 11,9 21,5 14,6 15,6 8 4 20 11 ZW 1026,1 - 60 0,0
12.10.2017 16:00:00 18,2 12,2 19,9 14,5 15,6 6 3 20 11 WZW 1026,7 30 2 0,0
12.10.2017 15:00:00 18,7 12,0 20,0 14,4 15,6 6 4 21 12 WZW 1026,6 25 25 0,0
12.10.2017 14:00:00 18,4 11,9 21,5 14,4 15,6 6 4 19 11 ZZW 1026,7 25 53 0,0
12.10.2017 13:00:00 17,1 11,6 18,4 14,3 15,6 6 3 16 9 WZW 1027,3 20 0 0,0
12.10.2017 12:00:00 16,9 12,4 17,3 14,3 15,6 7 4 21 12 ZZW 1027,3 20 15 0,0
12.10.2017 11:00:00 15,3 11,9 16,0 14,3 15,6 10 5 26 14 ZZW 1027,2 20 0 0,0
12.10.2017 10:00:00 14,9 12,0 14,6 14,4 15,6 10 5 23 12 ZW 1026,6 20 8 0,0
12.10.2017 09:00:00 14,3 11,8 12,8 14,4 15,6 13 7 31 17 ZW 1025,7 20 0 0,0
12.10.2017 08:00:00 13,7 11,6 12,8 14,4 15,6 8 4 20 11 ZW 1024,9 20 0 0,0
12.10.2017 07:00:00 14,0 11,3 12,9 14,4 15,6 9 5 24 13 ZZW 1023,8 20 0 0,0
12.10.2017 06:00:00 15,0 11,4 13,8 14,5 15,6 12 7 26 14 ZZW 1022,9 25 0 0,0
12.10.2017 05:00:00 14,4 10,8 11,4 14,5 15,6 12 6 27 14 ZZW 1022,9 - 0 0,0

tt = temperatuur
td = dauwpunt
tt 5cm = temperatuur 5cm
tt -20cm = temperatuur -20cm
tt -100cm = temperatuur -100cm
ff = windsnelheid
fx = windstoten
dd = windrichting
ppp = luchtdruk
vv = zicht
sd = Zonneschijnduur
rr = neerslag

Weerstations in de omgeving